Tracking 27402 objects as of 2-Jun-2023
HD Live streaming from Space Station
objects crossing your sky now

FENGYUN 1C DEB

Track FENGYUN 1C DEB now!
10-day predictions


NORAD ID: 30017
Int'l Code: 1999-025MS
Perigee: 546.4 km
Apogee: 871.6 km
Inclination: 98.8 °
Period: 98.8 minutes
Semi major axis: 7080 km
RCS: 0.0357 m2 (small)
Launch date: May 10, 1999
Source: People's Republic of China (PRC)
Launch site: Taiyaun Space Center, China (TSC)

Note: This is SATELLITE DEBRIS
Your satellite tracking list
Your tracking list is empty




NASA's NSSDC Master Catalog

Two Line Element Set (TLE):
1 30017U 99025MS  23152.51380953  .00001002  00000-0  16412-3 0  9993
2 30017  98.7747 131.3408 0229662 132.4162 229.6717 14.57305657869506
Source of the keplerian elements: AFSPC